Zurück zum Katalog

STARLINK-31267

AktivKommunikationVLEO
NORAD 59468·PAYLOAD·🇺🇸 United States

Gestartet Apr 10, 2024 von Cape Canaveral Space Force Station

Loading…

Nächste Überflüge (nächste 24 Stunden)

TLE

AktuellSource: CelesTrak SupGP

Epoche: Sep 14, 2026, 14:25 UTC

1 59468C 24068P   26257.60118056 -.00034410  00000+0 -12465-2 0  2571
2 59468  43.0040  43.4281 0001782 268.5113  65.8964 15.27590492    14

Verfolge STARLINK-31267 in Echtzeit mit AllMySat

Download on the App Store